{"data":{"norad_id":58743,"intl_designator":"2024-005R","name":"STARLINK-31156","alt_names":[],"object_type":"PAYLOAD","status":"ACTIVE","operator":null,"country":"US","launch_date":"2024-01-07","launch_site_code":"AFETR","launch_vehicle":null,"mission":null,"orbit_class":"UNKNOWN","rcs_meters":null,"size_class":null,"mass_kg":null,"dimensions":null,"purposes":["comms"],"wikipedia_slug":null,"has_3d_model":false,"image_url":null,"decayed_at":null,"tle_current":{"epoch":"2026-05-25T01:15:14.355072Z","epoch_age_seconds":70593,"freshness":"FRESH","line1":"1 58743U 24005R   26145.05224948 -.00001037  00000+0 -28177-4 0  9991","line2":"2 58743  43.0038 148.3968 0001120 276.1976  83.8748 15.27571863132175","mean_motion":15.27571863,"eccentricity":0.000112,"inclination_deg":43.0038,"raan_deg":148.3968,"arg_perigee_deg":276.1976,"mean_anomaly_deg":83.8748,"bstar":-2.8177e-5,"rev_number":13217,"period_min":94.267250849461,"perigee_km":482.30500568142,"apogee_km":483.84191682474,"semimajor_km":6861.2104612531,"source":"CELESTRAK","updated_at":"2026-05-25T13:38:18.738822Z"}}}